This is the latest recevied weather packets stored in our database for station/object VE3MJM-WX. If no packets are shown the sender has not sent any weather packets the latest 10 day(s).
| Time | Temp. | Humidity | Pressure | Rain* | Wind** | Luminosity | Snow |
|---|---|---|---|---|---|---|---|
| 1777647179 | 5.56° C | 65% | 1007.7 hPa | 0 mm | - | - | - |
| 1777646277 | 5.56° C | 68% | 1007.9 hPa | 0 mm | - | - | - |
| 1777645374 | 5° C | 72% | 1008 hPa | 0 mm | - | - | - |
| 1777644472 | 5° C | 74% | 1007.9 hPa | 0 mm | - | - | - |
| 1777643569 | 4.44° C | 72% | 1007.9 hPa | 0 mm | - | - | - |
| 1777642667 | 4.44° C | 74% | 1008.1 hPa | 0 mm | - | - | - |
| 1777641764 | 3.89° C | 78% | 1008.1 hPa | 0 mm | - | - | - |
| 1777640861 | 3.89° C | 80% | 1008.5 hPa | 0 mm | - | - | - |
| 1777639959 | 3.89° C | 82% | 1008.3 hPa | 0 mm | - | - | - |
| 1777639056 | 3.33° C | 83% | 1008.2 hPa | 0 mm | - | - | - |
| 1777638154 | 3.33° C | 85% | 1008.3 hPa | 0 mm | - | - | - |
| 1777637251 | 3.33° C | 87% | 1008.4 hPa | 0 mm | - | - | - |
| 1777636349 | 2.22° C | 92% | 1008.2 hPa | 0 mm | - | - | - |
| 1777635446 | 2.22° C | 93% | 1008.4 hPa | 0 mm | - | - | - |
| 1777634544 | 1.67° C | 95% | 1008.3 hPa | 0 mm | - | - | - |
| 1777633641 | 1.11° C | 95% | 1008.3 hPa | 0 mm | - | - | - |
| 1777632739 | 1.11° C | 96% | 1008.5 hPa | 0 mm | - | - | - |
| 1777631836 | 1.11° C | 96% | 1008.2 hPa | 0 mm | - | - | - |
| 1777630933 | 1.11° C | 94% | 1008.9 hPa | 0 mm | - | - | - |
| 1777630031 | 1.67° C | 92% | 1008.5 hPa | 0 mm | - | - | - |
| 1777629128 | 1.67° C | 90% | 1008.6 hPa | 0 mm | - | - | - |
| 1777628226 | 1.67° C | 92% | 1008.7 hPa | 0 mm | - | - | - |
| 1777627323 | 1.67° C | 87% | 1008.7 hPa | 0 mm | - | - | - |
| 1777626421 | 1.67° C | 86% | 1008.8 hPa | 0 mm | - | - | - |
| 1777625518 | 1.67° C | 89% | 1008.9 hPa | 0 mm | - | - | - |
* Rain latest hour (hover to see other rain measurements)
** Current wind speed in m/s (hover to see current wind gust speed)